Weather in Belovo

Russia / Novosibirsk Oblast     54°32′19″N   83°38′06″E
temp.,
°C
wind,
m/s
gust,
m/s
humid.,
%
clouds,
%
prec.,
mm/h
press.,
hPa
HPBL,
m
28 february, sun
sun2801:00−29ssw339760 0.0 104029
04:00−29s239867 0.0 103924
07:00−30sse339754 0.0 104033
10:00−26se489653 0.0 1038192
13:00−19sse489457 0.0 1035340
16:00−15sse598598 0.0 1032580
19:00−14se489599 0.2 1029330
22:00−14se51094100 0.4 1026335
1 march, mon
mon101:00−11sse51094100 0.9 1022356
04:00−10sse51094100 0.5 1019449
07:00−9sse61294100 1.9 1015542
10:00−7s71194100 1.6 1012712
13:00−4s61195100 3.7 1010784
16:00−1ssw91594100 0.9 1008910
19:000sw81497100 3.6 1007801
22:00−1sw81397100 1.9 1007736
2 march, tue
tue201:00−2wsw71296100 2.9 1008698
04:00−7wnw3696100 0.6 1011218
07:00−10w249699 1.3 1014101
10:00−11w369594 0.3 1016283
13:00−10w479297 0.5 1018474
16:00−9wsw3591100 0.1 1018591
19:00−11sw239699 0.3 101847
22:00−15sw129797 0.1 101820
3 march, wed
wed301:00−15sse119698 0.2 101620
04:00−14se1197100 0.1 101520
07:00−14ese1196100 0.3 101620
10:00−12sse009499 0.3 101588
13:00−10wsw2290100 0.5 1016325
16:00−9wsw3592100 0.4 1018487
19:00−11w2496100 0.8 102083
22:00−14sw3496100 0.3 1023113
4 march, thu
thu401:00−17ssw369798 0.3 1024126
04:00−20s3310088 0.0 102547
07:00−21sse469987 0.0 1026107
10:00−17sse599596 0.0 1025258
13:00−11sse6109398 0.0 1024422
16:00−7s61090100 0.0 1022633
19:00−8s51287100 0.1 1020417
22:00−9sse61291100 0.0 1018291